This is the latest recevied weather packets stored in our database for station/object KM4KBD. If no packets are shown the sender has not sent any weather packets the latest 10 day(s).
| Time | Temp. | Humidity | Pressure | Rain* | Wind** | Luminosity | Snow |
|---|---|---|---|---|---|---|---|
| 1777726795 | 6.67° C | 88% | 1023.7 hPa | 0 mm | - | 59 W/m² | - |
| 1777726492 | 6.67° C | 90% | 1023.7 hPa | 0 mm | - | 60 W/m² | - |
| 1777725583 | 5.56° C | 95% | 1023.4 hPa | 0 mm | - | 66 W/m² | - |
| 1777724977 | 5° C | 97% | 1023.6 hPa | 0 mm | - | 60 W/m² | - |
| 1777724673 | 4.44° C | 98% | 1023.6 hPa | 0 mm | - | 49 W/m² | - |
| 1777724372 | 4.44° C | 99% | 1023.5 hPa | 0 mm | - | 56 W/m² | - |
| 1777724068 | 4.44° C | 99% | 1023.4 hPa | 0 mm | - | 71 W/m² | - |
| 1777723766 | 3.89° C | 99% | 1023.6 hPa | 0 mm | - | 59 W/m² | - |
| 1777723462 | 3.89° C | 99% | 1023.6 hPa | 0 mm | - | 66 W/m² | - |
| 1777723159 | 3.33° C | 99% | 1023.6 hPa | 0 mm | - | 68 W/m² | - |
| 1777722249 | 2.78° C | 99% | 1023 hPa | 0 mm | - | 49 W/m² | - |
| 1777721946 | 2.78° C | 99% | 1022.9 hPa | 0 mm | - | 49 W/m² | - |
| 1777721644 | 2.22° C | 99% | 1023.1 hPa | 0 mm | - | 50 W/m² | - |
| 1777721342 | 2.22° C | 99% | 1023.1 hPa | 0 mm | - | 47 W/m² | - |
| 1777721040 | 2.22° C | 99% | 1023.1 hPa | 0 mm | - | 42 W/m² | - |
| 1777720737 | 1.67° C | 99% | 1023.1 hPa | 0 mm | - | 30 W/m² | - |
| 1777720434 | 1.67° C | 99% | 1022.9 hPa | 0 mm | - | 25 W/m² | - |
| 1777720131 | 1.67° C | 99% | 1023 hPa | 0 mm | - | 19 W/m² | - |
| 1777719829 | 1.67° C | 99% | 1023.1 hPa | 0 mm | - | 16 W/m² | - |
| 1777719526 | 1.67° C | 99% | 1022.9 hPa | 0 mm | - | 12 W/m² | - |
| 1777719223 | 1.67° C | 99% | 1023.1 hPa | 0 mm | - | 8 W/m² | - |
| 1777718921 | 1.67° C | 99% | 1022.8 hPa | 0 mm | - | 5 W/m² | - |
| 1777718618 | 1.67° C | 99% | 1022.9 hPa | 0 mm | - | 4 W/m² | - |
| 1777718315 | 1.67° C | 99% | 1022.9 hPa | 0 mm | - | 2 W/m² | - |
| 1777718013 | 1.67° C | 99% | 1023 hPa | 0 mm | - | 1 W/m² | - |
* Rain latest hour (hover to see other rain measurements)
** Current wind speed in m/s (hover to see current wind gust speed)